When you browse on this site, cookies collect data to enhance your experience and personalize the content and advertising you see.
Visit our Privacy Policy to learn more. By continuing to use the site, you agree to this use of cookies and data.
  • En España
  • Lista de países
  • Para 7 días
  • Temperatura del agua
  • El tiempo en el mapa
  • Informadores
  • user-avatar
    Iniciar sesión

    Tiempo cada hora Galapagar

    Hoy, 20 Febrero, Jueves

    Tiempo Temperatura Precipitaciones Viento Presión Humedad
    00:00 +7°C° 0 mm 1 mps 693 mmHg 54%
    01:00 +7°C° 0 mm 1 mps 692 mmHg 53%
    02:00 +6°C° 0 mm 1 mps 692 mmHg 51%
    03:00 +6°C° 0 mm 1 mps 691 mmHg 50%
    04:00 +6°C° 0 mm 1 mps 691 mmHg 51%
    05:00 +6°C° 0 mm 1 mps 691 mmHg 53%
    06:00 +5°C° 0 mm 1 mps 691 mmHg 55%
    07:00 +7°C° 0 mm 1 mps 691 mmHg 53%
    08:00 +8°C° 0 mm 1 mps 692 mmHg 50%
    09:00 +8°C° 0 mm 0 mps 692 mmHg 48%
    10:00 +11°C° 0 mm 1 mps 692 mmHg 45%
    11:00 +12°C° 0 mm 1 mps 692 mmHg 43%
    12:00 +14°C° 0 mm 1 mps 692 mmHg 40%
    13:00 +14°C° 0 mm 1 mps 691 mmHg 39%
    14:00 +15°C° 0 mm 1 mps 691 mmHg 39%
    15:00 +15°C° 0 mm 1 mps 691 mmHg 38%
    16:00 +14°C° 0 mm 1 mps 691 mmHg 42%
    17:00 +12°C° 0 mm 1 mps 691 mmHg 47%
    18:00 +11°C° 0 mm 1 mps 691 mmHg 51%
    19:00 +10°C° 0 mm 1 mps 691 mmHg 52%
    20:00 +10°C° 0 mm 1 mps 691 mmHg 52%
    21:00 +9°C° 0 mm 1 mps 692 mmHg 52%
    22:00 +9°C° 0 mm 1 mps 692 mmHg 52%
    23:00 +9°C° 0 mm 1 mps 692 mmHg 52%

    Mañana, 21 Febrero, Viernes

    Tiempo Temperatura Precipitaciones Viento Presión Humedad
    00:00 +8°C° 0 mm 1 mps 693 mmHg 52%
    01:00 +8°C° 0 mm 1 mps 693 mmHg 51%
    02:00 +7°C° 0 mm 2 mps 693 mmHg 49%
    03:00 +7°C° 0 mm 2 mps 693 mmHg 48%
    04:00 +6°C° 0 mm 2 mps 693 mmHg 48%
    05:00 +6°C° 0 mm 2 mps 694 mmHg 47%
    06:00 +6°C° 0 mm 2 mps 694 mmHg 47%
    13:00 +16°C° 0 mm 1 mps 695 mmHg 34%
    14:00 +16°C° 0 mm 1 mps 695 mmHg 33%
    15:00 +18°C° 0 mm 1 mps 694 mmHg 33%
    16:00 +15°C° 0 mm 1 mps 694 mmHg 37%
    17:00 +13°C° 0 mm 1 mps 694 mmHg 42%
    18:00 +11°C° 0 mm 0 mps 693 mmHg 47%
    19:00 +11°C° 0 mm 1 mps 694 mmHg 47%
    20:00 +11°C° 0 mm 1 mps 694 mmHg 48%
    21:00 +10°C° 0 mm 1 mps 694 mmHg 48%
    22:00 +10°C° 0 mm 1 mps 695 mmHg 49%
    23:00 +9°C° 0 mm 1 mps 695 mmHg 50%

    Pasado mañana, 22 Febrero, Sábado

    Tiempo Temperatura Precipitaciones Viento Presión Humedad
    00:00 +9°C° 0 mm 1 mps 695 mmHg 51%
    01:00 +9°C° 0 mm 1 mps 695 mmHg 52%
    02:00 +8°C° 0 mm 1 mps 695 mmHg 54%
    03:00 +8°C° 0 mm 1 mps 695 mmHg 55%
    04:00 +7°C° 0 mm 0 mps 695 mmHg 55%
    05:00 +7°C° 0 mm 0 mps 695 mmHg 55%
    06:00 +6°C° 0 mm 0 mps 695 mmHg 55%
    07:00 +8°C° 0 mm 0 mps 695 mmHg 51%
    08:00 +9°C° 0 mm 0 mps 696 mmHg 47%
    09:00 +11°C° 0 mm 0 mps 696 mmHg 42%
    10:00 +13°C° 0 mm 0 mps 697 mmHg 39%
    11:00 +15°C° 0 mm 1 mps 697 mmHg 36%
    12:00 +18°C° 0 mm 1 mps 697 mmHg 33%
    13:00 +18°C° 0 mm 1 mps 697 mmHg 32%
    14:00 +19°C° 0 mm 1 mps 697 mmHg 32%
    15:00 +19°C° 0 mm 1 mps 696 mmHg 31%
    16:00 +16°C° 0 mm 1 mps 696 mmHg 36%
    17:00 +14°C° 0 mm 0 mps 696 mmHg 41%
    18:00 +12°C° 0 mm 0 mps 695 mmHg 46%
    19:00 +11°C° 0 mm 0 mps 696 mmHg 48%
    20:00 +12°C° 0 mm 1 mps 696 mmHg 50%
    21:00 +11°C° 0 mm 1 mps 696 mmHg 52%
    22:00 +11°C° 0 mm 1 mps 696 mmHg 52%
    23:00 +10°C° 0 mm 1 mps 696 mmHg 52%

    23 Febrero, Domingo

    Tiempo Temperatura Precipitaciones Viento Presión Humedad
    00:00 +10°C° 0 mm 1 mps 697 mmHg 53%
    01:00 +10°C° 0 mm 1 mps 696 mmHg 54%
    02:00 +9°C° 0 mm 1 mps 696 mmHg 54%
    03:00 +9°C° 0 mm 1 mps 696 mmHg 55%
    04:00 +9°C° 0 mm 1 mps 696 mmHg 55%
    05:00 +8°C° 0 mm 1 mps 696 mmHg 55%
    06:00 +8°C° 0 mm 1 mps 696 mmHg 55%
    07:00 +9°C° 0 mm 1 mps 696 mmHg 52%
    08:00 +11°C° 0 mm 1 mps 697 mmHg 48%
    09:00 +12°C° 0 mm 1 mps 697 mmHg 45%
    10:00 +14°C° 0 mm 1 mps 697 mmHg 41%
    11:00 +15°C° 0 mm 1 mps 697 mmHg 38%
    12:00 +16°C° 0 mm 1 mps 697 mmHg 34%
    13:00 +18°C° 0 mm 1 mps 697 mmHg 34%
    14:00 +18°C° 0 mm 1 mps 696 mmHg 33%
    15:00 +19°C° 0 mm 1 mps 696 mmHg 33%
    16:00 +16°C° 0 mm 1 mps 696 mmHg 38%
    17:00 +13°C° 0 mm 0 mps 695 mmHg 42%
    18:00 +12°C° 0 mm 0 mps 695 mmHg 47%
    19:00 +11°C° 0 mm 0 mps 695 mmHg 48%
    20:00 +12°C° 0 mm 1 mps 696 mmHg 49%
    21:00 +11°C° 0 mm 1 mps 696 mmHg 50%
    22:00 +11°C° 0 mm 1 mps 696 mmHg 50%
    23:00 +10°C° 0 mm 1 mps 696 mmHg 50%

    24 Febrero, Lunes

    Tiempo Temperatura Precipitaciones Viento Presión Humedad
    00:00 +10°C° 0 mm 1 mps 696 mmHg 51%
    01:00 +10°C° 0 mm 1 mps 695 mmHg 52%
    02:00 +10°C° 0 mm 1 mps 695 mmHg 53%
    03:00 +9°C° 0 mm 1 mps 695 mmHg 53%
    04:00 +9°C° 0 mm 1 mps 695 mmHg 53%
    05:00 +9°C° 0 mm 1 mps 695 mmHg 53%
    06:00 +8°C° 0 mm 1 mps 695 mmHg 53%
    07:00 +9°C° 0 mm 0 mps 695 mmHg 49%
    08:00 +10°C° 0 mm 0 mps 695 mmHg 45%
    09:00 +12°C° 0 mm 0 mps 695 mmHg 42%
    10:00 +13°C° 0 mm 0 mps 695 mmHg 39%
    11:00 +16°C° 0 mm 1 mps 695 mmHg 36%
    12:00 +18°C° 0 mm 1 mps 695 mmHg 33%
    13:00 +19°C° 0 mm 1 mps 695 mmHg 33%
    14:00 +19°C° 0 mm 1 mps 694 mmHg 33%
    15:00 +19°C° 0 mm 1 mps 693 mmHg 33%
    16:00 +18°C° 0 mm 1 mps 693 mmHg 38%
    17:00 +15°C° 0 mm 1 mps 693 mmHg 42%
    18:00 +14°C° 0 mm 1 mps 692 mmHg 47%
    19:00 +13°C° 0 mm 1 mps 692 mmHg 48%
    20:00 +12°C° 0 mm 1 mps 692 mmHg 49%
    21:00 +11°C° 0 mm 1 mps 693 mmHg 50%
    22:00 +11°C° 0 mm 1 mps 692 mmHg 50%
    23:00 +10°C° 0 mm 1 mps 692 mmHg 51%

    25 Febrero, Martes

    Tiempo Temperatura Precipitaciones Viento Presión Humedad
    00:00 +10°C° 0 mm 1 mps 692 mmHg 51%
    01:00 +10°C° 0 mm 1 mps 692 mmHg 52%
    02:00 +9°C° 0 mm 1 mps 692 mmHg 53%
    03:00 +9°C° 0 mm 1 mps 692 mmHg 55%
    04:00 +8°C° 0 mm 1 mps 692 mmHg 56%
    05:00 +8°C° 0 mm 1 mps 691 mmHg 57%
    06:00 +8°C° 0 mm 1 mps 691 mmHg 58%
    07:00 +9°C° 0 mm 1 mps 692 mmHg 55%
    08:00 +11°C° 0 mm 1 mps 692 mmHg 51%
    09:00 +12°C° 0 mm 1 mps 692 mmHg 47%
    10:00 +13°C° 0 mm 1 mps 692 mmHg 43%
    11:00 +15°C° 0 mm 1 mps 692 mmHg 39%
    12:00 +16°C° 0 mm 2 mps 692 mmHg 35%
    13:00 +17°C° 0 mm 2 mps 691 mmHg 34%
    14:00 +17°C° 0 mm 3 mps 691 mmHg 32%
    15:00 +18°C° 0 mm 4 mps 691 mmHg 31%
    16:00 +16°C° 0 mm 3 mps 690 mmHg 36%
    17:00 +13°C° 0 mm 3 mps 690 mmHg 40%
    18:00 +12°C° 0 mm 3 mps 690 mmHg 45%
    19:00 +11°C° 0 mm 3 mps 690 mmHg 47%
    20:00 +10°C° 0 mm 3 mps 690 mmHg 48%
    21:00 +10°C° 0 mm 3 mps 691 mmHg 50%
    22:00 +9°C° 0 mm 3 mps 690 mmHg 50%
    23:00 +9°C° 0 mm 3 mps 690 mmHg 50%
    Mostrar más